Regional Weather Roundup
Issued by NWS

Home | Current Version | Previous Version | Text Only | Print | Product List | Glossary Off
Versions: 1 2 3 4 5 6 7 8 9 10 11 12 13 14 15 16 17 18 19 20 21 22 23 24 25 26 27 28 29 30 31 32 33 34 35 36 37 38 39 40 41 42 43 44 45 46 47 48 49 50

000
ASUS45 KBOI 231810
RWRID

IDAHO REGIONAL WEATHER ROUNDUP
NATIONAL WEATHER SERVICE BOISE ID
1200 PM MDT SAT JUL 23 2016

NOTE: "FAIR" INDICATES FEW OR NO CLOUDS BELOW 12000 FEET
WITH NO SIGNIFICANT WEATHER AND/OR OBSTRUCTIONS TO VISIBILITY

IDZ012-014-231900-
SOUTHWEST IDAHO


CITY           SKY/WX    TMP DP  RH WIND       PRES   REMARKS
BOISE          SUNNY     73  40  30 NW8       30.18F
CALDWELL       NOT AVBL
MOUNTAIN HOME  SUNNY     78  36  22 NW16      30.16F
$$

IDZ016-017-231900-
SOUTHCENTRAL IDAHO


CITY           SKY/WX    TMP DP  RH WIND       PRES   REMARKS
BURLEY         SUNNY     72  44  36 W12G20    30.19F
JEROME         SUNNY     73  41  31 W14       30.20F
TWIN FALLS     SUNNY     75  37  25 W10G21    30.21S
$$

IDZ019>023-231900-
SOUTHEAST IDAHO


CITY           SKY/WX    TMP DP  RH WIND       PRES   REMARKS
IDAHO FALLS    SUNNY     72  43  35 SW16G25   30.19F
POCATELLO      SUNNY     76  38  25 SW14      30.21S
REXBURG        SUNNY     72  42  34 SW13      30.19F
$$

IDZ006-010-011-018-031-032-231900-
CENTRAL IDAHO MOUNTAINS


CITY           SKY/WX    TMP DP  RH WIND       PRES   REMARKS
MCCALL         MOSUNNY   66  36  32 VRB3      30.23S
HAILEY         SUNNY     73  37  27 SE12      30.22F
STANLEY          N/A     72  25  17 VRB6      30.26F
SALMON         SUNNY     70  39  32 CALM      30.15F
CHALLIS        SUNNY     73  38  27 VRB3      30.17F
$$

IDZ002-004-006-007-026-231900-
NORTHERN IDAHO


CITY           SKY/WX    TMP DP  RH WIND       PRES   REMARKS
LEWISTON       SUNNY     73  46  38 VRB3      30.17F
LOWELL           N/A     76  50  40 CALM      30.14F
COEUR D`ALENE  MOSUNNY   66  50  55 NW6       30.18S
MULLAN PASS    PTSUNNY   55  45  68 VRB3      30.28R
$$



USA.gov is the U.S. government's official web portal to all federal, state and local government web resources and services.